• In Hungary
  • List of Countries
  • For 7 days
  • Water Temperature
  • Satellite Maps
  • Weather Map
  • News
  • Weather Widgets
  • user-avatar
    Login

    Hourly Weather Naszacowice

    Today, 16 July, Monday

    Time Temperature Precipitation Wind Pressure Humidity
    00:00 +16°C° 0.1 mm 2 mps 730 mmHg 93%
    01:00 +15°C° 0.1 mm 2 mps 730 mmHg 94%
    02:00 +15°C° 0 mm 2 mps 730 mmHg 94%
    03:00 +15°C° 0 mm 2 mps 730 mmHg 94%
    04:00 +15°C° 0 mm 2 mps 730 mmHg 94%
    05:00 +16°C° 0 mm 2 mps 730 mmHg 90%
    06:00 +18°C° 0 mm 2 mps 730 mmHg 86%
    07:00 +19°C° 0 mm 3 mps 730 mmHg 81%
    08:00 +21°C° 0.2 mm 3 mps 730 mmHg 76%
    09:00 +22°C° 0.2 mm 4 mps 730 mmHg 71%
    10:00 +23°C° 0.2 mm 4 mps 729 mmHg 66%
    11:00 +23°C° 0.6 mm 4 mps 729 mmHg 66%
    12:00 +25°C° 0.6 mm 4 mps 729 mmHg 66%
    13:00 +25°C° 0.6 mm 4 mps 728 mmHg 66%
    14:00 +25°C° 0.9 mm 3 mps 728 mmHg 70%
    15:00 +24°C° 0.9 mm 3 mps 728 mmHg 74%
    16:00 +24°C° 0.9 mm 3 mps 728 mmHg 78%
    17:00 +22°C° 0.4 mm 3 mps 727 mmHg 81%
    18:00 +21°C° 0.4 mm 2 mps 727 mmHg 85%
    19:00 +20°C° 0.4 mm 2 mps 727 mmHg 88%
    20:00 +19°C° 0.4 mm 2 mps 727 mmHg 90%
    21:00 +18°C° 0.4 mm 2 mps 727 mmHg 92%
    22:00 +17°C° 0.4 mm 2 mps 727 mmHg 94%
    23:00 +16°C° 0 mm 2 mps 727 mmHg 94%

    Tomorrow, 17 July, Tuesday

    Time Temperature Precipitation Wind Pressure Humidity
    00:00 +16°C° 0 mm 2 mps 727 mmHg 94%
    01:00 +16°C° 0 mm 2 mps 726 mmHg 95%
    02:00 +16°C° 0 mm 2 mps 726 mmHg 95%
    03:00 +15°C° 0 mm 2 mps 726 mmHg 95%
    04:00 +15°C° 0 mm 2 mps 726 mmHg 95%
    05:00 +17°C° 0 mm 2 mps 726 mmHg 92%
    06:00 +18°C° 0 mm 3 mps 726 mmHg 88%
    07:00 +19°C° 0 mm 3 mps 726 mmHg 85%
    08:00 +20°C° 0.2 mm 4 mps 726 mmHg 81%
    09:00 +21°C° 0.2 mm 4 mps 726 mmHg 78%
    10:00 +22°C° 0.2 mm 4 mps 726 mmHg 74%
    11:00 +22°C° 0.4 mm 4 mps 726 mmHg 76%
    12:00 +22°C° 0.4 mm 4 mps 726 mmHg 77%
    13:00 +22°C° 0.4 mm 4 mps 726 mmHg 79%
    14:00 +22°C° 0.4 mm 4 mps 726 mmHg 79%
    15:00 +22°C° 0.4 mm 4 mps 726 mmHg 79%
    16:00 +22°C° 0.4 mm 4 mps 726 mmHg 79%
    17:00 +21°C° 0.2 mm 4 mps 726 mmHg 82%
    18:00 +20°C° 0.2 mm 4 mps 726 mmHg 86%
    19:00 +19°C° 0.2 mm 3 mps 726 mmHg 90%
    20:00 +19°C° 0.1 mm 3 mps 726 mmHg 92%
    21:00 +18°C° 0.1 mm 3 mps 726 mmHg 93%
    22:00 +18°C° 0.1 mm 3 mps 726 mmHg 94%
    23:00 +18°C° 0.2 mm 3 mps 726 mmHg 95%

    Day after tomorrow, 18 July, Wednesday

    Time Temperature Precipitation Wind Pressure Humidity
    00:00 +18°C° 0.2 mm 3 mps 726 mmHg 95%
    01:00 +18°C° 0.2 mm 3 mps 725 mmHg 96%
    02:00 +18°C° 0.3 mm 3 mps 725 mmHg 96%
    03:00 +18°C° 0.3 mm 3 mps 725 mmHg 96%
    04:00 +18°C° 0.3 mm 3 mps 725 mmHg 96%
    05:00 +18°C° 1.2 mm 3 mps 725 mmHg 96%
    06:00 +18°C° 1.2 mm 3 mps 726 mmHg 96%
    07:00 +18°C° 1.2 mm 4 mps 726 mmHg 95%
    08:00 +18°C° 1.8 mm 4 mps 726 mmHg 95%
    09:00 +18°C° 1.8 mm 4 mps 726 mmHg 95%
    10:00 +17°C° 1.8 mm 5 mps 726 mmHg 95%
    11:00 +17°C° 2.4 mm 5 mps 726 mmHg 95%
    12:00 +17°C° 2.4 mm 5 mps 727 mmHg 95%
    13:00 +17°C° 2.4 mm 5 mps 727 mmHg 94%
    14:00 +19°C° 1.1 mm 4 mps 727 mmHg 94%
    15:00 +19°C° 1.1 mm 4 mps 727 mmHg 94%
    16:00 +19°C° 1.1 mm 4 mps 727 mmHg 93%
    17:00 +19°C° 0.2 mm 3 mps 727 mmHg 94%
    18:00 +19°C° 0.2 mm 3 mps 727 mmHg 94%
    19:00 +19°C° 0.2 mm 3 mps 728 mmHg 94%
    20:00 +19°C° 0.1 mm 3 mps 728 mmHg 95%
    21:00 +19°C° 0.1 mm 3 mps 728 mmHg 95%
    22:00 +19°C° 0.1 mm 3 mps 728 mmHg 96%
    23:00 +19°C° 0.1 mm 3 mps 728 mmHg 96%

    19 July, Thursday

    Time Temperature Precipitation Wind Pressure Humidity
    00:00 +19°C° 0.1 mm 3 mps 728 mmHg 96%
    01:00 +19°C° 0.1 mm 4 mps 728 mmHg 96%
    02:00 +18°C° 0.1 mm 3 mps 729 mmHg 96%
    03:00 +18°C° 0.1 mm 3 mps 729 mmHg 96%
    04:00 +18°C° 0.1 mm 3 mps 729 mmHg 96%
    05:00 +18°C° 0 mm 4 mps 729 mmHg 93%
    06:00 +18°C° 0 mm 4 mps 729 mmHg 91%
    07:00 +19°C° 0 mm 4 mps 730 mmHg 89%
    08:00 +19°C° 0 mm 4 mps 730 mmHg 85%
    09:00 +20°C° 0 mm 4 mps 730 mmHg 82%
    10:00 +21°C° 0 mm 4 mps 731 mmHg 78%
    11:00 +22°C° 0 mm 4 mps 731 mmHg 72%
    12:00 +23°C° 0 mm 4 mps 731 mmHg 66%
    13:00 +25°C° 0 mm 5 mps 731 mmHg 60%
    14:00 +26°C° 0 mm 4 mps 731 mmHg 59%
    15:00 +26°C° 0 mm 4 mps 731 mmHg 59%
    16:00 +26°C° 0 mm 4 mps 731 mmHg 58%
    17:00 +25°C° 0 mm 4 mps 731 mmHg 65%
    18:00 +22°C° 0 mm 3 mps 731 mmHg 72%
    19:00 +21°C° 0 mm 2 mps 731 mmHg 78%
    20:00 +20°C° 0 mm 2 mps 731 mmHg 82%
    21:00 +18°C° 0 mm 2 mps 731 mmHg 86%
    22:00 +18°C° 0 mm 1 mps 731 mmHg 90%
    23:00 +18°C° 0 mm 1 mps 731 mmHg 91%

    20 July, Friday

    Time Temperature Precipitation Wind Pressure Humidity
    00:00 +16°C° 0 mm 1 mps 731 mmHg 92%
    01:00 +16°C° 0 mm 1 mps 731 mmHg 93%
    02:00 +16°C° 0 mm 1 mps 731 mmHg 94%
    03:00 +15°C° 0 mm 1 mps 731 mmHg 94%
    04:00 +15°C° 0 mm 1 mps 731 mmHg 94%
    05:00 +18°C° 0 mm 1 mps 731 mmHg 89%
    06:00 +20°C° 0 mm 1 mps 732 mmHg 83%
    07:00 +20°C° 0 mm 2 mps 732 mmHg 77%
    08:00 +23°C° 0 mm 2 mps 732 mmHg 70%
    09:00 +24°C° 0 mm 2 mps 732 mmHg 62%
    10:00 +25°C° 0 mm 2 mps 732 mmHg 55%
    11:00 +26°C° 0 mm 2 mps 732 mmHg 52%
    12:00 +27°C° 0 mm 2 mps 732 mmHg 50%
    13:00 +28°C° 0 mm 2 mps 731 mmHg 47%
    14:00 +27°C° 0 mm 2 mps 731 mmHg 49%
    15:00 +27°C° 0 mm 2 mps 731 mmHg 50%
    16:00 +27°C° 0 mm 2 mps 731 mmHg 52%
    17:00 +25°C° 0 mm 2 mps 731 mmHg 59%
    18:00 +24°C° 0 mm 1 mps 731 mmHg 67%
    19:00 +22°C° 0 mm 1 mps 730 mmHg 74%
    20:00 +21°C° 0 mm 1 mps 730 mmHg 77%
    21:00 +20°C° 0 mm 1 mps 730 mmHg 80%
    22:00 +18°C° 0 mm 1 mps 730 mmHg 82%
    23:00 +18°C° 0 mm 1 mps 730 mmHg 83%

    21 July, Saturday

    Time Temperature Precipitation Wind Pressure Humidity
    00:00 +18°C° 0 mm 1 mps 730 mmHg 84%
    01:00 +16°C° 0 mm 1 mps 730 mmHg 85%
    02:00 +16°C° 0 mm 1 mps 730 mmHg 85%
    03:00 +16°C° 0 mm 1 mps 730 mmHg 86%
    04:00 +16°C° 0 mm 1 mps 729 mmHg 86%
    05:00 +19°C° 0 mm 1 mps 729 mmHg 80%
    06:00 +21°C° 0 mm 1 mps 729 mmHg 75%
    07:00 +23°C° 0 mm 1 mps 730 mmHg 69%
    08:00 +24°C° 0.1 mm 2 mps 729 mmHg 67%
    09:00 +25°C° 0.1 mm 2 mps 729 mmHg 66%
    10:00 +27°C° 0.1 mm 2 mps 729 mmHg 64%
    11:00 +26°C° 0.8 mm 2 mps 729 mmHg 67%
    12:00 +26°C° 0.8 mm 2 mps 729 mmHg 70%
    13:00 +26°C° 0.8 mm 1 mps 728 mmHg 73%
    14:00 +26°C° 0.5 mm 1 mps 728 mmHg 73%
    15:00 +26°C° 0.5 mm 1 mps 728 mmHg 72%
    16:00 +27°C° 0.5 mm 2 mps 728 mmHg 72%
    17:00 +25°C° 0.3 mm 1 mps 727 mmHg 76%
    18:00 +24°C° 0.3 mm 1 mps 727 mmHg 80%
    19:00 +23°C° 0.3 mm 1 mps 727 mmHg 83%
    20:00 +22°C° 0.4 mm 1 mps 727 mmHg 86%
    21:00 +21°C° 0.4 mm 1 mps 726 mmHg 88%
    22:00 +19°C° 0.4 mm 2 mps 726 mmHg 90%
    23:00 +19°C° 0.5 mm 2 mps 726 mmHg 91%
    Show more